This demonstration page uses our WeatherBlox Daily Observations layout. Learn more.

Left ArrowRight Arrow

38.80484, -77.04692

Hourly Observations for December 10, 2021

Temp ( °F °C ) Dew Point ( °F °C ) Humidity (%) Winds ( mph kmh ) Pressure ( in mb ) Visibility ( mi km ) Precip ( " mm )
12:52 am 00:52 Cloudy 40 4.4 30 -1.1 68 68 S 10 17 30.15 1021 10 16 0.00 0.00
1:52 am 01:52 Cloudy 41 5 28 -2.2 60 60 S 10 17 30.14 1021 10 16 0.00 0.00
2:52 am 02:52 Cloudy 41 5 28 -2.2 60 60 S 10 17 30.14 1021 10 16 0.00 0.00
3:52 am 03:52 Cloudy 41 5 28 -2.2 60 60 S 10 17 30.12 1020 10 16 0.00 0.00
4:52 am 04:52 Cloudy 41 5 28 -2.2 60 60 SSW 9 15 30.12 1020 10 16 0.00 0.00
5:52 am 05:52 Cloudy 42 5.6 29 -1.7 60 60 SSW 6 9 30.13 1020 10 16 0.00 0.00
6:52 am 06:52 Cloudy 42 5.6 29 -1.7 60 60 SSW 6 9 30.14 1021 10 16 0.00 0.00
7:52 am 07:52 Cloudy 43 6.1 30 -1.1 60 60 SSW 8 13 30.15 1021 10 16 0.00 0.00
8:52 am 08:52 Cloudy 44 6.7 31 -0.6 60 60 SW 7 11 30.17 1022 10 16 0.00 0.00
9:52 am 09:52 Cloudy 44 6.7 33 0.6 65 65 S 6 9 30.18 1022 10 16 0.00 0.00
10:52 am 10:52 Mostly Cloudy 47 8.3 33 0.6 59 59 SSE 5 7 30.16 1022 10 16 0.00 0.00
11:52 am 11:52 Cloudy 48 8.9 34 1.1 58 58 SSE 3 6 30.15 1021 10 16 0.00 0.00
12:52 pm 12:52 Cloudy 52 11.1 33 0.6 49 49 NNE 3 6 30.11 1020 10 16 0.00 0.00
1:52 pm 13:52 Cloudy 51 10.6 34 1.1 52 52 Calm 30.09 1019 10 16 0.00 0.00
2:52 pm 14:52 Mostly Cloudy 53 11.7 35 1.7 51 51 Calm 30.09 1019 10 16 0.00 0.00
3:52 pm 15:52 Cloudy 53 11.7 35 1.7 51 51 SSE 3 6 30.10 1019 10 16 0.00 0.00
4:52 pm 16:52 Cloudy 50 10 38 3.3 63 63 SSE 3 6 30.11 1020 10 16 0.00 0.00
5:52 pm 17:52 Cloudy 51 10.6 37 2.8 59 59 ESE 8 13 30.10 1019 10 16 0.00 0.00
6:52 pm 18:52 Cloudy with Drizzle 49 9.4 40 4.4 71 71 ESE 7 11 30.08 1019 10 16 0.01 0.25
7:11 pm 19:11 Cloudy 49 9.4 40 4.4 71 71 Calm 30.12 1020 10 16 0.00 0.00
7:37 pm 19:37 Cloudy 49 9.4 41 5 74 74 Calm 30.12 1020 10 16 0.00 0.00
7:52 pm 19:52 Cloudy 49 9.4 41 5 74 74 Calm 30.11 1020 10 16 0.00 0.00
8:27 pm 20:27 Cloudy 49 9.4 42 5.6 77 77 Calm 30.11 1020 10 16 0.00 0.00
8:52 pm 20:52 Cloudy 50 10 42 5.6 74 74 Calm 30.11 1020 10 16 0.00 0.00
9:52 pm 21:52 Cloudy 49 9.4 42 5.6 77 77 ENE 6 9 30.08 1019 10 16 0.00 0.00
10:52 pm 22:52 Cloudy with Light Rain 50 10 43 6.1 77 77 Calm 30.07 1018 10 16 0.00 0.00
11:52 pm 23:52 Cloudy with Light Rain 48 8.9 44 6.7 86 86 S 5 7 30.04 1017 9 14 0.00 0.00

Powered by AerisWeather